GFSFLT2_850_temp_270.txt.gz
Temp
20 19 19 19 19 19 18 18 18 19 19 19 19 18 17 17 16 16 16 16 16 16 16 16 15 15 15 15 16 17 17 17
20 19 18 18 19 19 18 18 18 19 19 19 19 19 18 17 17 17 16 16 16 16 16 16 15 15 15 15 15 15 16 17
21 20 19 18 18 18 18 18 18 18 19 19 19 19 18 18 17 17 17 16 16 17 16 16 16 15 15 15 15 16 16 16
21 20 19 19 18 18 18 18 17 18 18 19 19 19 19 18 18 17 17 16 17 17 17 17 16 15 15 15 16 16 16 16
21 20 20 19 18 18 17 17 18 18 19 19 19 19 19 19 18 18 17 17 17 17 17 17 16 16 15 15 16 16 16 16
20 20 20 19 19 18 18 17 17 18 18 19 19 19 19 19 19 18 18 18 18 17 17 17 16 16 16 16 16 16 16 16
21 20 20 20 19 18 18 18 18 18 18 18 19 19 19 19 19 19 19 18 18 18 17 17 16 16 16 16 16 16 16 16
20 20 20 20 20 19 18 18 18 18 17 18 19 19 19 19 19 18 19 19 18 18 18 17 17 17 16 16 16 16 16 16
21 20 20 19 21 19 18 18 18 18 17 18 18 18 19 19 19 19 18 18 18 18 17 17 17 17 16 16 16 16 16 16
20 19 20 19 20 21 19 18 18 18 18 17 18 18 18 18 19 19 19 18 18 18 17 17 17 16 16 16 16 16 16 16
20 20 21 20 19 20 20 20 18 18 18 18 18 18 18 18 18 19 19 19 18 17 17 17 17 16 17 16 16 16 16 16
20 21 21 20 20 19 19 19 19 19 19 18 18 18 18 17 17 17 17 18 18 17 17 17 16 16 16 16 16 16 16 16
19 20 20 20 19 18 18 18 19 19 19 19 18 18 18 18 17 17 16 17 17 17 16 16 16 16 16 16 15 16 17 16
19 18 19 20 21 22 21 20 20 20 19 18 19 18 18 18 17 16 16 16 17 17 16 16 16 16 16 15 15 15 16 16
18 18 18 18 20 21 19 17 16 16 17 19 19 19 18 18 18 17 16 17 17 16 16 16 16 16 16 16 14 15 15 15
16 18 18 17 15 16 19 18 17 17 19 18 19 19 18 17 18 18 17 17 16 17 16 17 17 17 16 16 16 16 14 13
14 16 17 17 16 15 16 17 19 19 18 18 18 18 18 18 18 17 17 17 17 17 16 16 17 17 17 16 16 16 16 16
12 14 15 17 16 15 15 16 16 17 16 16 17 17 17 17 17 17 17 17 17 17 17 17 17 17 17 17 16 16 16 16
10 11 13 15 16 16 15 15 16 17 19 17 17 17 17 17 17 18 17 17 17 17 17 16 17 17 17 17 16 16 16 16
7 8 10 12 14 15 16 15 16 16 17 18 17 17 18 18 17 17 17 17 17 17 17 17 16 17 17 17 18 16 16 16

GFSFLT2_850_temp_273.txt.gz
Temp
19 19 19 19 18 18 18 18 18 19 19 18 18 18 17 17 17 17 17 16 15 15 15 15 15 15 16 16 16 17 17 17
19 19 18 18 18 18 18 18 18 19 18 18 18 18 18 17 17 17 17 16 15 15 15 15 15 15 15 15 16 16 17 17
19 19 18 18 18 17 17 18 17 18 18 18 18 18 18 18 17 17 17 16 16 15 15 15 15 15 15 15 16 16 16 17
20 19 19 18 17 17 17 17 17 17 18 18 18 18 18 18 18 17 17 17 16 16 15 15 14 15 15 15 16 16 16 16
19 20 19 19 18 17 17 17 17 17 17 18 18 18 18 17 18 18 17 17 17 16 16 15 15 15 15 15 16 16 16 16
21 20 19 19 18 17 17 17 17 17 17 18 18 18 18 18 18 18 18 17 17 17 16 16 15 15 15 16 16 16 16 16
20 20 20 19 19 18 18 17 17 17 17 17 18 18 19 19 18 18 18 18 17 17 17 16 15 15 16 16 16 16 16 16
19 20 20 19 20 19 19 18 18 17 17 18 18 18 18 18 19 18 18 18 17 17 17 17 16 16 16 16 16 16 16 16
20 19 19 20 20 20 20 19 18 18 17 18 18 18 18 18 18 19 18 18 17 17 17 17 16 16 16 16 16 16 16 16
21 20 19 19 19 19 19 20 19 19 18 18 18 18 18 18 18 18 18 18 18 17 17 17 17 16 16 16 16 16 16 16
20 20 19 19 19 18 19 19 19 19 19 18 18 18 18 18 18 18 18 18 18 17 17 17 17 16 16 16 15 16 16 16
18 18 19 19 20 17 17 18 18 18 19 19 18 18 19 18 18 18 18 18 18 17 17 17 17 16 15 15 15 16 16 16
15 16 16 16 19 18 17 18 19 19 19 19 20 19 19 19 19 18 17 17 18 17 17 17 17 16 15 15 15 15 15 16
16 14 14 15 17 18 18 19 20 20 19 18 19 19 19 19 19 18 18 17 17 17 17 17 16 16 16 15 15 15 15 16
14 14 15 15 15 16 17 14 14 15 17 18 19 19 19 19 19 19 18 17 17 17 17 16 17 16 16 16 14 15 15 16
13 13 14 15 16 14 15 16 16 17 18 19 19 19 18 18 19 19 19 18 17 17 17 16 16 16 16 15 15 16 15 15
11 13 13 14 14 14 14 15 15 15 16 15 18 18 18 18 17 18 18 18 17 17 17 16 16 16 16 16 15 15 15 16
10 11 12 13 13 13 13 13 14 14 14 15 16 16 17 18 17 17 18 18 17 17 17 17 16 16 16 16 16 15 15 15
8 10 11 11 12 13 13 13 13 14 14 15 15 15 16 17 18 17 17 18 17 17 17 16 17 16 16 17 16 16 16 15
4 7 10 11 11 12 14 14 13 13 14 14 14 15 16 17 17 17 18 17 17 16 17 17 16 16 16 16 17 16 16 16

GFSFLT2_850_temp_276.txt.gz
Temp
19 18 18 18 18 18 18 18 18 18 18 18 17 17 17 17 17 16 16 15 15 15 15 15 16 16 16 17 16 16 16 17
18 18 18 18 18 18 18 18 18 18 18 18 17 17 17 17 17 16 16 16 15 16 16 15 16 16 16 16 16 16 17 17
18 18 18 18 17 17 17 17 18 18 17 18 17 17 16 17 17 17 16 16 16 16 16 16 16 15 15 15 16 16 16 17
18 18 18 18 17 17 17 17 17 18 17 17 17 17 17 16 16 17 16 16 15 15 16 16 16 16 16 15 15 16 16 16
18 18 18 17 17 17 17 17 17 17 17 17 17 17 17 17 16 16 16 16 16 15 15 16 16 16 16 16 15 16 16 16
18 18 17 18 18 17 17 17 17 17 17 17 17 17 17 17 17 17 16 16 16 16 15 15 15 16 16 16 16 15 16 16
20 18 17 17 18 18 17 17 17 17 17 18 17 17 18 18 18 17 17 17 16 16 16 15 15 15 15 16 16 16 16 16
18 19 19 18 17 18 18 18 18 17 17 18 18 17 17 18 18 18 18 17 17 16 16 15 15 15 15 16 16 16 16 15
17 19 19 18 18 18 18 18 18 18 18 17 18 18 18 17 17 18 18 17 17 17 16 15 15 15 15 16 16 16 16 16
18 17 18 18 18 18 18 18 18 19 18 18 18 18 18 18 17 17 17 17 17 17 17 16 15 15 16 16 16 16 16 16
18 16 16 17 17 18 18 18 18 18 18 18 18 18 18 18 18 18 17 17 17 17 17 17 16 16 16 16 15 16 16 16
16 15 14 15 15 16 16 16 17 18 18 18 18 18 18 18 18 18 17 17 17 17 17 17 17 16 16 15 15 15 15 15
14 13 14 14 15 15 15 15 18 17 17 17 17 18 18 18 18 18 18 18 17 17 17 17 17 16 15 15 15 15 15 15
13 12 12 13 14 14 15 15 16 17 17 16 17 17 17 18 19 19 18 18 18 17 17 17 17 16 15 15 15 15 15 15
12 12 12 13 13 14 14 15 15 14 15 16 17 17 17 17 18 18 19 18 18 18 18 17 16 16 16 15 14 15 15 15
10 11 11 12 13 14 13 15 14 14 15 17 17 17 16 16 16 16 17 18 18 18 18 17 17 16 16 15 15 16 15 15
9 9 10 11 11 11 12 13 13 14 14 15 14 16 16 17 16 16 16 17 18 18 18 17 17 17 16 16 15 15 15 16
7 8 9 10 11 11 11 13 13 13 13 14 14 14 15 16 16 16 15 16 17 18 17 17 17 17 16 16 16 15 15 15
6 6 7 8 10 11 11 11 11 13 13 13 13 14 14 15 15 15 16 16 16 17 17 17 17 16 16 16 16 16 16 15
3 5 6 6 8 9 10 10 11 12 12 12 13 13 13 14 14 14 15 16 16 16 17 17 16 16 16 16 16 16 15 16

GFSFLT2_850_temp_279.txt.gz
Temp
19 18 18 18 18 18 18 18 18 18 17 17 17 17 17 17 17 17 17 16 16 17 17 17 17 17 17 17 16 16 16 17
18 18 18 18 17 17 18 18 17 17 17 17 17 17 17 17 16 17 17 16 16 17 17 17 16 16 17 17 17 16 16 16
18 18 18 17 17 17 17 17 17 17 17 16 16 16 17 16 16 16 16 16 16 16 16 16 16 16 16 16 17 16 16 16
18 18 17 17 17 17 17 17 17 17 17 16 16 16 16 17 16 15 16 16 16 16 16 16 16 16 16 16 16 16 16 16
17 17 17 17 17 17 17 17 17 17 17 17 16 16 16 16 16 16 15 15 16 16 16 16 16 16 16 16 16 16 16 16
17 17 17 17 16 16 17 17 17 17 17 17 17 16 16 16 16 16 16 16 16 16 16 16 15 15 15 16 16 16 16 16
15 16 17 17 17 16 17 17 17 17 17 17 17 17 16 16 16 16 16 16 16 16 16 16 16 15 16 16 16 15 16 15
15 15 16 17 18 17 17 17 17 17 17 18 18 17 17 16 16 16 16 16 16 16 16 16 16 15 15 16 15 15 15 15
17 17 15 15 16 17 17 17 17 17 17 18 18 18 17 17 17 16 16 16 16 16 16 16 16 15 15 15 16 16 15 15
16 17 15 14 15 15 16 16 17 17 17 17 18 18 18 17 17 17 16 16 16 15 16 15 15 15 15 15 16 16 16 15
15 15 13 14 15 15 15 15 16 17 17 17 17 17 18 18 17 17 17 16 16 16 15 15 15 15 15 15 16 15 16 16
13 13 11 13 14 14 14 15 15 16 17 17 16 16 17 17 17 17 17 17 17 16 16 16 15 15 15 15 15 15 15 16
13 13 12 12 13 13 14 14 14 15 16 16 17 16 16 17 17 18 17 17 17 17 17 16 16 16 15 15 15 15 15 15
10 11 12 12 12 12 13 14 14 14 15 16 16 16 16 16 17 17 17 17 17 17 17 17 16 16 15 14 14 14 15 15
8 8 10 11 12 13 13 13 14 14 14 14 16 16 16 16 16 16 16 17 17 17 17 16 17 17 16 15 15 16 15 15
7 7 8 9 10 12 12 13 13 14 14 14 14 15 16 16 15 16 16 16 16 17 16 16 16 16 16 16 15 15 15 15
6 6 7 7 8 9 10 11 11 12 13 13 14 13 13 14 15 15 16 16 16 16 17 17 16 15 16 15 16 15 15 15
6 6 6 6 7 8 9 10 11 12 12 13 12 13 13 13 13 14 15 15 16 16 17 16 16 16 15 16 14 16 14 14
5 5 5 5 6 7 7 8 9 10 11 12 12 12 13 14 13 14 15 14 15 15 15 16 16 16 16 15 15 15 14 14
4 4 5 5 5 6 6 7 8 9 10 10 11 12 12 12 13 13 15 15 15 13 14 15 15 16 16 16 15 16 15 15

GFSFLT2_850_temp_282.txt.gz
Temp
18 18 18 17 17 18 18 18 17 17 17 17 17 17 17 17 17 16 17 17 17 17 17 17 17 17 17 16 16 16 14 14
17 17 17 17 17 17 17 17 17 17 17 17 16 16 16 16 16 16 16 16 17 17 17 17 17 17 17 17 17 16 14 14
15 15 17 17 17 17 17 17 17 16 16 16 16 15 16 16 15 16 16 16 16 17 17 17 17 16 17 17 16 15 14 14
15 14 15 17 15 17 17 17 16 16 16 16 14 14 14 14 16 16 16 16 16 16 16 16 16 16 16 16 15 14 14 14
15 15 14 15 15 15 15 15 14 15 15 15 14 14 14 14 15 15 15 15 15 16 16 16 14 14 15 14 15 15 14 14
14 15 15 16 15 15 15 15 15 15 16 16 14 14 14 14 14 14 14 14 14 14 14 15 16 15 15 15 15 14 14 14
14 14 14 15 15 14 14 15 15 15 16 17 15 14 14 14 14 14 14 14 14 14 15 14 15 16 16 16 16 15 15 14
15 14 14 14 15 15 14 14 15 17 16 16 17 16 14 14 14 14 14 14 14 14 15 15 15 15 16 16 16 15 16 15
14 15 15 15 14 15 16 15 14 14 16 17 17 17 17 15 14 14 14 14 13 13 14 14 15 14 15 15 15 16 15 16
14 14 14 15 15 15 15 15 15 14 14 14 17 17 17 17 15 14 14 14 14 14 14 14 14 15 15 15 15 14 15 15
13 13 14 15 14 14 14 14 15 15 14 14 16 17 17 17 15 15 14 14 14 14 14 14 15 15 15 15 15 15 14 14
11 10 12 13 13 13 14 14 14 15 14 14 14 16 16 17 17 15 15 14 14 14 14 14 15 15 16 16 15 15 15 14
10 8 10 11 12 13 13 13 14 14 14 14 15 15 15 16 16 15 15 14 15 14 14 14 14 14 15 15 16 14 14 14
7 8 7 7 8 9 12 13 13 13 14 14 14 14 14 14 15 15 15 14 14 14 14 14 14 14 14 16 17 16 15 14
5 5 6 6 8 7 8 11 13 14 13 13 14 14 14 14 14 14 13 14 14 14 15 16 15 14 14 16 17 18 18 17
5 5 5 6 8 7 8 7 8 11 12 13 13 14 13 14 14 14 14 13 14 14 15 15 14 15 14 14 16 17 18 18
5 5 5 5 5 6 5 6 7 10 10 12 11 13 13 13 13 14 13 13 13 13 13 15 15 14 15 15 14 15 15 16
5 5 5 4 4 4 4 5 7 9 10 10 10 11 12 12 13 14 13 13 13 13 13 13 14 14 14 15 15 15 15 16
5 5 5 4 4 4 3 3 4 5 7 9 9 9 12 12 12 12 12 13 13 14 13 13 12 13 14 15 15 15 16 16
5 5 5 4 4 3 3 3 3 4 4 6 8 7 8 10 12 12 12 12 12 13 13 13 13 13 12 13 14 14 15 15

GFSFLT2_850_temp_285.txt.gz
Temp
16 17 17 17 17 17 17 17 17 17 17 17 17 16 16 16 16 16 16 16 16 16 16 16 16 16 16 16 16 15 15 14
16 15 15 17 17 17 17 17 17 17 17 16 16 16 16 16 15 16 16 16 16 16 16 17 17 17 17 17 16 15 16 15
17 16 15 15 17 17 17 17 17 17 17 16 16 15 15 15 15 15 16 16 16 16 17 17 17 17 17 16 16 16 16 16
15 16 16 15 16 16 17 17 17 16 16 16 15 15 14 15 16 15 15 15 16 16 16 16 16 17 17 16 16 16 16 16
15 15 15 15 16 15 15 15 15 15 14 15 15 15 15 15 15 15 15 15 15 15 16 16 15 16 15 15 15 16 16 16
14 14 15 15 15 16 16 17 16 15 15 14 15 15 15 15 16 15 15 15 15 15 15 15 15 15 15 15 15 16 16 16
14 14 14 14 15 15 15 16 16 16 16 15 15 15 16 15 16 16 16 16 16 16 16 16 16 15 15 15 15 16 16 16
12 12 14 14 14 15 15 16 16 15 16 15 15 15 16 16 16 16 16 16 16 16 17 17 16 16 15 15 15 15 15 15
10 10 11 14 15 14 14 15 15 16 15 15 14 15 15 15 16 16 16 16 16 16 16 16 17 17 17 16 15 15 15 15
10 10 10 14 12 14 14 14 15 15 16 15 14 14 15 15 15 16 16 16 16 15 15 16 16 16 16 17 16 16 15 15
9 9 9 13 11 13 14 14 15 15 15 15 15 14 14 15 15 16 16 16 16 16 15 16 16 16 17 17 16 16 17 16
9 9 9 9 10 10 11 13 14 14 14 14 14 14 14 14 14 15 16 16 16 16 15 16 16 17 17 17 17 16 16 17
8 9 8 8 9 9 10 10 13 14 14 14 13 14 14 14 14 14 14 15 16 16 16 15 16 15 16 17 17 17 16 16
8 8 8 8 8 8 9 9 10 12 13 13 14 14 14 14 14 14 14 14 15 15 15 15 15 15 16 16 17 17 17 16
8 7 7 7 6 8 8 9 10 10 11 12 12 13 13 14 14 14 14 14 14 15 15 15 15 15 15 16 17 18 19 19
7 7 7 7 6 6 6 7 8 8 8 11 11 12 12 12 13 14 14 14 13 14 14 14 14 15 16 15 16 17 17 19
7 7 7 6 6 6 6 6 6 7 8 7 10 12 12 11 12 13 13 14 13 13 14 14 14 14 15 16 15 15 17 16
7 7 7 6 6 5 5 5 5 6 7 7 6 8 11 11 11 11 12 12 12 13 13 13 13 14 14 15 16 16 16 16
7 7 7 6 6 5 5 5 5 5 6 6 6 5 7 9 9 11 11 11 12 13 13 13 13 13 13 14 14 15 16 16
6 6 7 6 5 5 5 5 5 5 5 5 5 5 5 6 8 9 10 10 11 11 13 11 13 13 13 13 13 13 14 16

GFSFLT2_850_temp_288.txt.gz
Temp
17 17 17 17 18 18 18 17 17 17 17 17 17 16 16 16 15 15 15 16 16 16 16 16 16 16 16 16 15 15 15 14
16 16 17 17 17 17 18 18 17 17 17 17 17 16 16 16 15 15 15 15 16 16 16 16 16 16 16 16 16 15 15 14
16 15 15 16 17 17 17 17 17 17 17 17 17 17 16 15 16 15 15 15 16 16 16 16 17 17 17 16 16 16 16 16
16 15 15 15 15 16 17 17 17 17 17 16 16 14 16 15 15 16 16 16 16 16 16 16 16 16 16 16 16 16 16 16
15 16 15 16 15 15 16 16 16 16 15 16 16 15 15 15 15 15 16 16 16 16 16 16 15 15 16 16 15 16 16 16
14 14 15 16 16 15 15 15 16 16 16 15 16 15 15 15 15 16 16 16 16 16 16 16 16 16 16 15 16 16 16 16
13 12 15 15 15 16 16 16 15 15 16 16 16 15 15 15 16 16 16 16 15 16 16 16 16 16 15 15 15 16 16 16
12 11 14 15 15 15 16 16 15 15 16 16 16 16 15 16 16 16 16 16 16 16 16 17 16 16 16 16 15 15 15 16
10 10 13 14 14 14 14 15 16 16 15 15 15 16 16 16 15 16 16 16 16 17 16 17 17 16 17 17 16 16 15 15
9 9 11 12 13 14 13 14 14 15 15 15 15 15 15 16 15 15 16 16 16 16 16 16 16 16 17 17 17 16 16 15
9 9 9 10 11 12 11 12 14 14 14 14 14 14 14 14 15 15 16 16 16 16 16 15 16 16 16 17 17 16 16 16
8 8 8 9 10 11 11 11 12 11 12 13 13 14 13 14 14 15 15 16 16 16 16 16 15 16 16 17 17 17 16 16
8 8 8 8 9 8 9 11 10 10 10 11 12 13 13 13 13 13 14 15 16 16 16 16 16 16 16 17 17 17 17 16
8 8 8 8 8 7 8 8 9 10 9 11 11 11 13 13 13 12 13 14 15 15 16 16 16 16 15 16 16 17 17 17
8 8 8 7 7 7 8 8 8 8 8 8 10 11 10 12 11 12 12 13 13 14 15 15 15 15 15 15 16 16 17 18
8 8 8 7 7 7 7 6 6 6 7 7 7 7 9 10 11 11 13 12 13 13 14 15 15 15 15 15 16 17 17 17
8 8 8 7 6 6 6 6 6 6 6 6 6 7 7 7 9 10 12 10 11 12 13 13 14 14 14 15 15 16 17 16
7 7 7 7 6 5 5 6 5 5 5 5 5 5 6 6 8 9 10 11 11 11 12 12 12 13 14 14 16 15 15 16
7 7 7 7 6 5 5 5 5 5 5 4 5 5 5 5 6 7 7 10 10 10 11 11 11 11 12 13 13 15 15 16
7 7 7 6 5 5 5 5 4 4 4 4 4 4 4 4 4 5 5 7 8 9 10 10 10 11 12 11 10 12 15 16

GFSFLT2_850_temp_291.txt.gz
Temp
15 16 17 17 17 18 18 17 17 17 17 17 17 16 16 16 15 15 15 15 15 16 16 16 16 16 15 15 15 15 15 15
15 15 15 15 17 17 18 18 17 17 17 17 17 16 16 15 16 15 15 16 16 16 16 16 16 16 16 15 15 15 15 16
15 15 16 15 15 15 16 17 17 17 17 17 17 16 16 16 16 16 16 16 16 16 16 16 17 16 16 15 15 14 14 15
16 15 15 15 15 15 15 15 16 17 17 17 16 16 15 16 15 15 16 16 16 16 17 17 17 16 16 16 16 15 15 15
15 15 15 15 15 15 15 15 15 16 16 16 15 16 15 15 15 15 16 16 16 16 16 16 16 16 16 16 16 15 15 16
13 15 15 15 15 15 15 14 14 15 15 16 16 15 15 15 15 15 15 16 16 16 16 16 16 15 16 15 16 15 15 16
11 13 15 15 15 15 15 15 15 14 14 15 16 16 15 15 15 15 15 16 16 16 16 16 16 16 16 15 16 15 15 16
10 12 13 14 15 15 15 15 14 14 14 14 15 15 15 15 15 15 15 16 16 16 16 16 16 16 16 16 16 16 15 15
10 11 12 13 13 13 13 13 14 14 14 14 14 14 14 15 15 15 16 16 16 16 16 16 16 16 16 17 16 16 16 15
9 9 11 12 12 12 12 12 12 12 12 13 14 14 14 14 15 15 15 15 16 16 16 16 16 16 16 16 16 16 16 16
8 8 10 10 11 12 12 12 11 10 10 11 12 12 13 14 14 15 15 15 15 16 16 16 16 16 16 16 16 16 16 16
8 8 9 9 10 11 11 11 10 9 10 10 11 11 12 13 13 13 14 14 15 15 15 16 16 16 16 16 16 16 16 16
7 7 8 9 9 9 10 10 9 9 9 8 9 10 11 11 13 12 13 13 14 14 15 14 16 15 15 15 16 16 16 16
9 7 7 7 8 8 8 8 9 9 9 9 7 8 10 11 11 12 12 12 13 14 14 14 14 15 15 15 16 16 16 16
8 7 7 7 7 8 8 9 9 8 9 8 8 7 8 9 10 11 12 12 12 12 13 14 13 14 14 15 15 15 16 17
8 8 7 7 7 7 6 6 6 5 6 7 7 7 7 7 8 8 8 10 10 11 12 12 13 12 13 14 15 15 16 16
8 7 7 7 6 6 6 6 6 6 6 6 7 7 6 6 7 7 7 8 9 10 10 11 11 12 13 12 13 14 15 16
7 7 6 6 6 6 6 6 6 6 6 6 6 7 7 6 6 7 6 6 7 8 9 10 10 11 11 12 11 11 13 13
7 7 6 6 6 6 5 5 5 5 5 5 5 6 6 7 5 5 6 5 5 7 7 9 10 10 11 11 12 10 11 13
7 7 6 6 5 5 5 5 5 5 4 4 5 5 5 6 6 4 5 5 4 5 5 7 8 9 10 10 11 11 11 11